Skip Page Navigation
NASA JPL Caltech
NASA Logo - Jet Propulsion Laboratory + View the NASA Portal
+ Center for Near-Earth Object Studies
JPL Home Earth Solar System Stars & Galaxies Technology
JPL Solar System Dynamics
BODIES ORBITS EPHEMERIDES TOOLS PHYSICAL DATA DISCOVERY FAQ SITE MAP
IMPORTANT: The SSD Announcement email list is now available. Major changes are coming in the near future, including possible hostname and/or URL changes. To be notified of such changes, subscribe to this email list.

Please visit this page for more details.


JPL Small-Body Database Browser
Search: [ help ]  
100925 (1998 LV3)
Classification: Main-belt Asteroid          SPK-ID: 2100925
Ephemeris | Orbit Diagram | Orbital Elements | Mission Design | Physical Parameters | Discovery Circumstances | Close-Approach Data ]

[ show orbit diagram ]
Orbital Elements at Epoch 2459000.5 (2020-May-31.0) TDB
Reference: JPL 23 (heliocentric ecliptic J2000)
 Element Value Uncertainty (1-sigma)   Units 
e .2491617224952789 4.3564e-08  
a 2.347472295756301 1.0939e-08 au
q 1.762572055035714 1.0195e-07 au
i 3.828096775397959 4.4417e-06 deg
node 62.8192937613633 6.8257e-05 deg
peri 276.4422520704653 6.8847e-05 deg
M 331.5713759960072 1.2726e-05 deg
tp 2459104.241489444794
(2020-Sep-11.74148944)
4.6931e-05 TDB
period 1313.70889406679
3.60
9.1826e-06
2.514e-08
d
yr
n .2740333125747242 1.9154e-09 deg/d
Q 2.932372536476887 1.3664e-08 au
  Orbit Determination Parameters
   # obs. used (total)      809  
   data-arc span      7647 days (20.94 yr)  
   first obs. used      1998-05-22  
   last obs. used      2019-04-29  
   planetary ephem.      DE431  
   SB-pert. ephem.      SB431-N16  
   condition code      0  
   norm. resid. RMS      .56566  
   source      ORB  
   producer      Otto Matic  
   solution date      2019-Jul-13 06:48:16  

Additional Information
 Earth MOID = .758992 au 
 Jupiter MOID = 2.47408 au 
 T_jup = 3.515 
[ hide covariance matrix ]
Orbital Elements at Epoch 2456410.5 (2013-Apr-28.0) TDB
Reference: JPL 23 (heliocentric ecliptic J2000)
 Element Value Uncertainty (1-sigma)   Units 
e .2476840616359571 4.3199e-08  
q 1.766005779201041 1.0089e-07 au
tp 2456476.067571585215
(2013-Jul-02.56757159)
3.7596e-05 TDB
node 62.980353666738 6.8114e-05 deg
peri 276.0839825906723 6.8727e-05 deg
i 3.831175103254003 4.4427e-06 deg
  Orbit Determination Parameters
   # obs. used (total)      809  
   data-arc span      7647 days (20.94 yr)  
   first obs. used      1998-05-22  
   last obs. used      2019-04-29  
   planetary ephem.      DE431  
   SB-pert. ephem.      SB431-N16  
   condition code      0  
   norm. resid. RMS      .56566  
   source      ORB  
   producer      Otto Matic  
   solution date      2019-Jul-13 06:48:16  

Additional Information
 Jupiter MOID = 2.47408 au 
 T_jup = 3.515 
Orbit Covariance (6×6)
  e q tp node peri i
e 1.86612136092163E-15 -4.343989771902999E-15 7.248899145717421E-13 -1.484742835410792E-14 1.726425121166692E-13 -1.422330990042641E-16
q -4.343989771902999E-15 1.017908477581816E-14 -1.583108184353528E-12 3.423129291754292E-14 -3.794287698260592E-13 3.006697001196749E-16
tp 7.248899145717421E-13 -1.583108184353528E-12 1.413448129811633E-9 -1.28194561386866E-11 3.681148097575767E-10 -8.904389685300882E-13
node -1.484742835410792E-14 3.423129291754292E-14 -1.28194561386866E-11 4.639536408149247E-9 -4.631632269506911E-9 -9.317262033016972E-11
peri 1.726425121166692E-13 -3.794287698260592E-13 3.681148097575767E-10 -4.631632269506911E-9 4.723453780342521E-9 9.273686517449008E-11
i -1.422330990042641E-16 3.006697001196749E-16 -8.904389685300882E-13 -9.317262033016972E-11 9.273686517449008E-11 1.973773154946462E-11

Ephemeris | Orbit Diagram | Orbital Elements | Mission Design | Physical Parameters | Discovery Circumstances | Close-Approach Data ]

Physical Parameter Table
Parameter Symbol Value Units Sigma Reference Notes
absolute magnitude H 15.6   n/a MPO432536  
rotation period rot_per 6.734 h n/a LCDB (Rev. 2019-August); Warner et al., 2009 Result based on less than full coverage, so that the period may be wrong by 30 percent or so.
Published Reference List:
[Waszczak, A.; Chang, C.-K.; Ofeck, E.O.; Laher, F.; et al. (2015) Astron. J. 150, A75.]

100925 (1998 LV3)          Discovered 1998-Jun-01 by Elst, E. W. at La Silla
Reference: 20051019/Numbers.arcLast Updated: 2005-10-26

[ show close-approach data ]
Alternate Designations
 1998 LV3 = 2002 PD91 
Ephemeris | Orbit Diagram | Orbital Elements | Mission Design | Physical Parameters | Discovery Circumstances | Close-Approach Data ]
ABOUT SSD CREDITS/AWARDS PRIVACY/COPYRIGHT GLOSSARY LINKS
FirstGov 2020-May-25 03:02 UT
(server date/time)  
NASA Home Page
Site Manager:   Ryan S. Park
Webmaster  Alan B. Chamberlin